Location: *
(51.5000°N, 0.1100°W)
Time: 05:56:02
(UTC+00:00)

Cosmos 1025 Rocket - Pass Details

Date: 09 August 2024
Orbit: 590 x 612 km, 82.5° (Epoch: 07 September)

Event Time Altitude Azimuth Distance (km) Brightness Sun altitude
Rises 03:52:30 0° 354° (N) 2,888 6.9 -6.8°
Reaches altitude 10° 03:54:50 10° 1° (N) 1,981 6.2 -6.5°
Maximum altitude 03:59:01 43° 73° (ENE) 872 4.5 -5.9°
Drops below altitude 10° 04:03:11 10° 146° (SE) 1,970 5.7 -5.4°
Sets 04:05:29 0° 153° (SSE) 2,870 6.4 -5.1°
